Flag for Germany Weather past 2 weeks in Eberswalde, Brandenburg, Germany

Now
68 °F

Passing clouds.


Feels Like: 68 °F
Forecast: 60 / 86 °F
Wind: 6 mph from Northeast

Location: Berlin-Tegel

Current Time: Aug 3, 2015 at 1:04:41 AM

Latest Report: Aug 3, 2015 at 12:20 AM


Visibility: N/A

Pressure: 30.12 "Hg

Humidity: 60%

Dew point: 54 °F

Location of EberswaldeLocation

Historic Weather in Eberswalde — Graph

°F

Eberswalde temperature yesterday

Maximum temperature yesterday: 84 °F (at 2:20 PM)
Minimum temperature yesterday: 55 °F (at 5:20 AM)
Average temperature yesterday: 72 °F

Past Weeks' High & Low Weather Summary

 TemperatureHumidityPressure
High84 °F (Jul 22, 5:50 PM)100% (Jul 19, 11:50 AM)30.12 "Hg (Jul 19, 11:50 AM)
Low46 °F (Aug 1, 2:20 AM)20% (Aug 2, 2:20 PM)29.53 "Hg (Jul 25, 8:50 AM)
Average66 °F62%29.85 "Hg
* Reported Jul 18 11:20 PM — Aug 2 11:20 PM, Eberswalde, Weather by CustomWeather, © 2015

Note: Actual official high and low records may vary slightly from our data, if they occured in-between our weather recording intervals... More about our weather records

Advertising

Eberswalde weather history for previous 24 hours

 ConditionsComfort  
Time TempWeatherWind HumidityBarometerVisibility
11:20 PM
Sun, Aug 2
70 °FPassing clouds.8 mph53%30.12 "HgN/A
10:50 PM72 °FPassing clouds.7 mph50%30.09 "HgN/A
10:20 PM72 °FClear.2 mph50%30.09 "Hg10 mi
9:50 PM72 °FSunny.2 mph47%30.09 "Hg10 mi
9:20 PM73 °FSunny.3 mph41%30.09 "Hg10 mi
8:50 PM77 °FSunny.3 mph34%30.09 "Hg10 mi
8:20 PM79 °FPassing clouds.6 mph32%30.09 "HgN/A
7:50 PM79 °FPassing clouds.6 mph32%30.07 "HgN/A
7:20 PM81 °FPassing clouds.7 mph28%30.07 "HgN/A
6:50 PM82 °FClear.7 mph26%30.07 "HgN/A
6:20 PM82 °FPassing clouds.6 mph26%30.07 "HgN/A
5:50 PM82 °FPassing clouds.8 mph25%30.07 "HgN/A
5:20 PM84 °FPassing clouds.6 mph23%30.07 "HgN/A
4:50 PM84 °FPassing clouds.8 mph23%30.07 "HgN/A
4:20 PM84 °FPassing clouds.9 mph23%30.07 "HgN/A
3:50 PM82 °FSunny.6 mph25%30.09 "Hg10 mi
3:20 PM84 °FPassing clouds.8 mph23%30.09 "HgN/A
2:50 PM84 °FSunny.5 mph22%30.09 "Hg10 mi
2:20 PM84 °FSunny.6 mph20%30.09 "Hg10 mi
1:50 PM82 °FSunny.6 mph23%30.09 "Hg10 mi
1:20 PM82 °FPassing clouds.7 mph23%30.09 "HgN/A
12:50 PM82 °FSunny.6 mph25%30.09 "Hg10 mi
12:20 PM82 °FPassing clouds.6 mph30%30.09 "HgN/A
11:50 AM81 °FSunny.5 mph34%30.09 "Hg10 mi
11:20 AM79 °FSunny.5 mph42%30.09 "Hg10 mi
10:50 AM79 °FPassing clouds.7 mph42%30.09 "HgN/A
10:20 AM77 °FPassing clouds.5 mph36%30.07 "HgN/A
9:50 AM75 °FSunny.2 mph39%30.07 "Hg10 mi
9:20 AM73 °FSunny.1 mph44%30.07 "Hg10 mi
8:50 AM70 °FSunny.1 mph50%30.07 "Hg10 mi
8:20 AM68 °FSunny.1 mph49%30.07 "Hg10 mi
7:50 AM64 °FSunny.2 mph60%30.07 "Hg10 mi
7:20 AM63 °FSunny.2 mph64%30.07 "Hg10 mi
6:50 AM57 °FSunny.2 mph82%30.07 "Hg10 mi
6:20 AM55 °FClear.No wind77%30.04 "Hg10 mi
5:50 AM55 °FClear.No wind82%30.04 "Hg10 mi
5:20 AM55 °FClear.1 mph77%30.04 "Hg10 mi
4:50 AM57 °FClear.No wind77%30.04 "Hg10 mi
4:20 AM57 °FClear.No wind72%30.04 "Hg10 mi
3:50 AM59 °FClear.2 mph68%30.04 "Hg10 mi
3:20 AM61 °FPassing clouds.3 mph63%30.04 "HgN/A
2:50 AM59 °FClear.2 mph72%30.04 "Hg10 mi
2:20 AM59 °FClear.3 mph72%30.04 "Hg10 mi
1:50 AM59 °FClear.2 mph68%30.04 "Hg10 mi
1:20 AM63 °FClear.2 mph64%30.04 "Hg10 mi
Weather by CustomWeather, © 2015

See weather overviewHow to use our weather pages